Flag for Cameroon Weather past 2 weeks in Douala, Cameroon

Now
75 °F

Thunderstorms. Partly cloudy.


Feels Like: 74 °F
Forecast: 74 / 86 °F
Wind: No wind

Location: Douala Obs.

Current Time: May 29, 2015 at 2:11:54 AM

Latest Report: May 29, 2015 at 1:00 AM


Visibility: N/A

Pressure: 29.83 "Hg

Humidity: 94%

Dew point: 73 °F

Location of DoualaLocation

Historic Weather in Douala — Graph

°F

Douala temperature yesterday

Maximum temperature yesterday: 88 °F (at 11:00 AM)
Minimum temperature yesterday: 75 °F (at 10:00 PM)
Average temperature yesterday: 82 °F

Past Weeks' High & Low Weather Summary

 TemperatureHumidityPressure
High93 °F (May 19, 1:00 PM)100% (May 14, 1:00 AM)29.98 "Hg (May 14, 1:00 AM)
Low73 °F (May 18, 5:00 AM)56% (May 19, 1:00 PM)29.74 "Hg (May 14, 5:00 PM)
Average82 °F84%29.86 "Hg
* Reported May 14 1:00 AM — May 29 1:00 AM, Douala, Weather by CustomWeather, © 2015

Note: Actual official high and low records may vary slightly from our data, if they occured in-between our weather recording intervals... More about our weather records

Advertising

Douala weather history for previous 24 hours

 ConditionsComfort  
Time TempWeatherWind HumidityBarometerVisibility
1:00 AM
Fri, May 29
75 °FThunderstorms. Partly cloudy.No wind94%29.83 "HgN/A
12:00 AM75 °FThunderstorms. Partly cloudy.No wind94%29.83 "HgN/A
11:00 PM
Thu, May 28
75 °FThunderstorms. Partly cloudy.No wind94%29.86 "HgN/A
10:00 PM75 °FThunderstorms. Partly cloudy.7 mph94%29.86 "Hg4 mi
9:00 PM81 °FThunderstorms. Mostly cloudy.14 mph74%29.86 "HgN/A
8:00 PM82 °FThunderstorms. Passing clouds.7 mph84%29.80 "HgN/A
7:00 PM84 °FPassing clouds.2 mph79%29.80 "HgN/A
6:00 PM82 °FBroken clouds.12 mph89%29.77 "HgN/A
5:00 PM86 °FPartly sunny.6 mph75%29.77 "HgN/A
4:00 PM86 °FPartly sunny.12 mph75%29.77 "HgN/A
3:00 PM88 °FPartly sunny.12 mph70%29.80 "HgN/A
2:00 PM88 °FPartly sunny.9 mph70%29.80 "HgN/A
1:00 PM88 °FPartly sunny.12 mph70%29.83 "HgN/A
12:00 PM88 °FPartly sunny.No wind70%29.89 "HgN/A
11:00 AM88 °FPartly sunny.No wind70%29.89 "HgN/A
10:00 AM84 °FPartly sunny.No wind79%29.89 "HgN/A
9:00 AM84 °FPartly sunny.No wind84%29.89 "Hg5 mi
8:00 AM81 °FBroken clouds.No wind94%29.89 "Hg5 mi
7:00 AM79 °FFog.No wind94%29.86 "Hg2 mi
6:00 AM79 °FFog.No wind94%29.86 "Hg2 mi
5:00 AM79 °FThunderstorms. Passing clouds.No wind94%29.86 "Hg4 mi
4:00 AM79 °FThunderstorms. Passing clouds.No wind94%29.86 "HgN/A
3:00 AM79 °FThunderstorms. Passing clouds.No wind94%29.86 "HgN/A
2:00 AM79 °FThunderstorms. Passing clouds.No wind94%29.86 "HgN/A
Weather by CustomWeather, © 2015

See weather overviewHow to use our weather pages